Date String (YYYY-MM-DD hh:mm:ss) UTC,Instrument flags,Ambient pressure (hPa),Sample flow (lpm),Bypass flow (lpm),Sample temperature (°C),Ambient temperature (°C),ASC tube jacket temperature (°C),LED temperature (°C),Box temperature (°C),Sample RH (%),Span deviation,Mass concentration (μg/m³),Mass concentration (μg/m³),Mass concentration (μg/m³)
DateTimeUTC,F1_M11,P_M11,Q1_M11,Q2_M11,T1_M11,T2_M11,T3_M11,T4_M11,T5_M11,U1_M11,ZSPAN_M11,X2_M11,X0_M11,X1_M11
2023-02-23 00:00:00,,0809.2,5.00,0.00,22.7,20.9,00.0,31.6,24.1,04.7,0000.0,0003.15,0006.47,0002.35
2023-02-23 00:01:00,,0809.3,5.00,0.00,22.7,21.3,00.0,31.6,24.2,04.7,0000.0,0003.12,0006.09,0002.35
2023-02-23 00:02:00,,0809.3,5.00,0.00,22.8,22.3,00.0,31.6,24.5,04.7,0000.0,0003.11,0005.59,0002.35
2023-02-23 00:03:00,,0809.3,5.01,0.00,22.9,23.2,00.0,31.6,24.7,04.7,0000.0,0003.10,0005.58,0002.33
2023-02-23 00:04:00,,0809.3,4.99,0.00,23.0,23.3,00.0,31.6,24.8,04.7,0000.0,0003.10,0005.19,0002.33
2023-02-23 00:05:00,,0809.3,5.00,0.00,23.0,22.6,00.0,31.6,24.6,04.7,0000.0,0003.10,0005.71,0002.33
2023-02-23 00:06:00,,0809.3,4.99,0.00,22.9,22.0,00.0,31.6,24.4,04.7,0000.0,0003.11,0005.78,0002.33
2023-02-23 00:07:00,,0809.3,5.00,0.00,22.8,21.5,00.0,31.6,24.3,04.7,0000.0,0003.08,0005.62,0002.32
2023-02-23 00:08:00,,0809.2,5.00,0.00,22.8,21.1,00.0,31.6,24.2,04.7,0000.0,0003.08,0005.56,0002.31
2023-02-23 00:09:00,,0809.2,5.01,0.00,22.7,21.0,00.0,31.6,24.1,04.7,0000.0,0003.04,0005.53,0002.30
2023-02-23 00:10:00,,0809.2,4.99,0.00,22.7,21.8,00.0,31.6,24.3,04.7,0000.0,0003.03,0005.49,0002.29
2023-02-23 00:11:00,,0809.2,4.99,0.00,22.8,22.7,00.0,31.6,24.6,04.7,0000.0,0003.01,0006.00,0002.28
2023-02-23 00:12:00,,0809.2,5.02,0.00,23.0,23.4,00.0,31.6,24.8,04.6,0000.0,0003.04,0007.27,0002.28
2023-02-23 00:13:00,,0809.3,5.00,0.00,23.0,23.0,00.0,31.6,24.8,04.6,0000.0,0003.03,0007.38,0002.28
2023-02-23 00:14:00,,0809.2,5.01,0.00,22.9,22.3,00.0,31.6,24.6,04.6,0000.0,0003.00,0007.37,0002.27
2023-02-23 00:15:00,,0809.3,5.02,0.00,22.9,21.8,00.0,31.6,24.4,04.6,0000.0,0002.97,0007.51,0002.26
2023-02-23 00:16:00,,0809.2,4.99,0.00,22.8,21.3,00.0,31.6,24.2,04.6,0000.0,0002.96,0007.22,0002.26
2023-02-23 00:17:00,,0809.3,5.00,0.00,22.7,21.1,00.0,31.6,24.2,04.6,0000.0,0002.92,0007.05,0002.25
2023-02-23 00:18:00,,0809.3,5.00,0.00,22.8,21.9,00.0,31.6,24.4,04.6,0000.0,0002.92,0007.03,0002.26
2023-02-23 00:19:00,,0809.4,5.01,0.00,22.9,22.8,00.0,31.6,24.6,04.5,0000.0,0002.87,0006.90,0002.27
2023-02-23 00:20:00,,0809.5,5.00,0.00,23.0,23.4,00.0,31.6,24.8,04.5,0000.0,0002.85,0006.78,0002.28
2023-02-23 00:21:00,,0809.4,5.00,0.00,23.0,22.9,00.0,31.6,24.7,04.5,0000.0,0002.86,0006.77,0002.28
2023-02-23 00:22:00,,0809.4,4.98,0.00,22.9,22.2,00.0,31.6,24.6,04.5,0000.0,0002.83,0006.18,0002.30
2023-02-23 00:23:00,,0809.3,5.00,0.00,22.9,21.7,00.0,31.6,24.4,04.5,0000.0,0002.81,0005.06,0002.30
2023-02-23 00:24:00,,0809.3,5.00,0.00,22.8,21.3,00.0,31.6,24.3,04.5,0000.0,0002.78,0004.84,0002.31
2023-02-23 00:25:00,,0809.4,5.00,0.00,22.8,21.2,00.0,31.6,24.2,04.5,0000.0,0002.77,0004.73,0002.31
2023-02-23 00:26:00,,0809.5,5.01,0.00,22.8,22.0,00.0,31.6,24.5,04.5,0000.0,0002.78,0004.55,0002.30
2023-02-23 00:27:00,,0809.6,4.98,0.00,22.9,22.9,00.0,31.6,24.7,04.5,0000.0,0002.79,0004.47,0002.30
2023-02-23 00:28:00,,0809.7,5.00,0.00,23.0,23.5,00.0,31.6,24.9,04.4,0000.0,0002.81,0004.55,0002.30
2023-02-23 00:29:00,,0809.7,5.01,0.00,23.0,23.0,00.0,31.6,24.8,04.4,0000.0,0002.80,0004.51,0002.27
2023-02-23 00:30:00,,0809.7,5.03,0.00,23.0,22.4,00.0,31.7,24.7,04.4,0000.0,0002.83,0004.57,0002.26
2023-02-23 00:31:00,,0809.7,5.00,0.00,22.9,21.9,00.0,31.7,24.5,04.4,0000.0,0002.86,0004.68,0002.26
2023-02-23 00:32:00,,0809.7,5.00,0.00,22.9,21.4,00.0,31.6,24.3,04.4,0000.0,0002.83,0004.69,0002.24
2023-02-23 00:33:00,,0809.7,5.00,0.00,22.8,21.0,00.0,31.6,24.2,04.5,0000.0,0002.87,0004.71,0002.25
2023-02-23 00:34:00,,0809.7,5.00,0.00,22.8,21.3,00.0,31.6,24.3,04.5,0000.0,0002.92,0004.57,0002.26
2023-02-23 00:35:00,,0809.8,5.01,0.00,22.8,22.2,00.0,31.6,24.5,04.4,0000.0,0002.96,0004.64,0002.26
2023-02-23 00:36:00,,0809.8,5.00,0.00,22.9,23.1,00.0,31.6,24.8,04.4,0000.0,0003.02,0004.77,0002.26
2023-02-23 00:37:00,,0809.9,5.02,0.00,23.0,23.3,00.0,31.6,24.8,04.4,0000.0,0003.01,0004.66,0002.27
2023-02-23 00:38:00,,0810.0,4.99,0.00,23.0,22.7,00.0,31.6,24.7,04.4,0000.0,0002.95,0004.39,0002.27
2023-02-23 00:39:00,,0810.1,5.00,0.00,22.9,22.1,00.0,31.7,24.5,04.4,0000.0,0002.95,0004.34,0002.27
2023-02-23 00:40:00,,0810.0,5.01,0.00,22.9,21.6,00.0,31.7,24.4,04.4,0000.0,0002.92,0004.32,0002.29
2023-02-23 00:41:00,,0809.9,5.00,0.00,22.8,21.1,00.0,31.6,24.2,04.4,0000.0,0002.92,0004.38,0002.30
2023-02-23 00:42:00,,0810.0,5.00,0.00,22.7,20.9,00.0,31.6,24.1,04.4,0000.0,0002.91,0004.36,0002.32
2023-02-23 00:43:00,,0810.2,5.01,0.00,22.8,21.6,00.0,31.6,24.3,04.4,0000.0,0002.96,0004.39,0002.35
2023-02-23 00:44:00,,0810.2,4.99,0.00,22.9,22.5,00.0,31.6,24.6,04.4,0000.0,0002.95,0004.37,0002.36
2023-02-23 00:45:00,,0810.2,5.00,0.00,23.0,23.2,00.0,31.6,24.8,04.4,0000.0,0002.93,0004.49,0002.35
2023-02-23 00:46:00,,0810.2,5.01,0.00,23.0,22.8,00.0,31.6,24.7,04.4,0000.0,0002.89,0004.45,0002.35
2023-02-23 00:47:00,,0810.2,4.98,0.00,22.9,22.2,00.0,31.6,24.5,04.4,0000.0,0002.86,0004.47,0002.36
2023-02-23 00:48:00,,0810.2,4.99,0.00,22.9,21.6,00.0,31.6,24.4,04.4,0000.0,0002.89,0004.58,0002.35
2023-02-23 00:49:00,,0810.3,5.01,0.00,22.8,21.1,00.0,31.6,24.2,04.4,0000.0,0002.94,0004.66,0002.35
2023-02-23 00:50:00,,0810.3,5.01,0.00,22.7,20.9,00.0,31.6,24.1,04.4,0000.0,0002.96,0004.73,0002.34
2023-02-23 00:51:00,,0810.3,5.00,0.00,22.7,21.6,00.0,31.5,24.3,04.4,0000.0,0002.96,0004.70,0002.33
2023-02-23 00:52:00,,0810.4,4.99,0.00,22.8,22.5,00.0,31.5,24.6,04.4,0000.0,0002.95,0004.59,0002.33
2023-02-23 00:53:00,,0810.3,4.99,0.00,22.9,23.2,00.0,31.6,24.8,04.4,0000.0,0002.91,0004.69,0002.31
2023-02-23 00:54:00,,0810.2,5.00,0.00,23.0,22.9,00.0,31.6,24.7,04.3,0000.0,0002.86,0004.60,0002.29
2023-02-23 00:55:00,,0810.2,4.99,0.00,22.9,22.2,00.0,31.6,24.5,04.4,0000.0,0002.88,0004.63,0002.29
2023-02-23 00:56:00,,0810.3,5.00,0.00,22.8,21.7,00.0,31.6,24.3,04.4,0000.0,0002.89,0004.49,0002.29
2023-02-23 00:57:00,,0810.3,5.00,0.00,22.8,21.2,00.0,31.6,24.2,04.4,0000.0,0002.89,0004.44,0002.29
2023-02-23 00:58:00,,0810.3,5.00,0.00,22.7,20.9,00.0,31.6,24.1,04.4,0000.0,0002.88,0004.37,0002.29
2023-02-23 00:59:00,,0810.3,5.02,0.00,22.7,21.7,00.0,31.5,24.3,04.4,0000.0,0002.86,0004.36,0002.29
